Location: Rounton
(54.4000°N, 1.3500°W)
Time: 23:20:20
(UTC+00:00)

Explorer 7 - Pass Details

Date: 04 December 2021
Orbit: 483 x 674 km, 50.3° (Epoch: 17 January)

Event Time Altitude Azimuth Distance (km) Brightness Sun altitude
Rises 08:31:38 0° 260° (W) 2,737 10.0 1.8°
Reaches altitude 10° 08:34:00 10° 254° (WSW) 1,809 9.2 2.0°
Maximum altitude 08:37:56 47° 181° (S) 699 7.9 2.4°
Drops below altitude 10° 08:41:40 10° 107° (ESE) 1,716 10.6 2.8°
Sets 08:43:51 0° 101° (ESE) 2,580 11.3 3.0°
